[[{"header":{"parameterUnit":"m.s-1","parameterCategory":1,"la1":30.2991,"la2":30.254,"lo1":-89.0895,"lo2":-89.0444,"dy":0.0017,"dx":0.0017,"nx":28,"ny":28,"refTime":"2025-04-13T21:00:00:Z","depth":0,"parameterNumber":2,"parameterNumberName":"U-component_of_WINDS"},"data":[0,0,0,0,0,0,0,0,0,0,0,0,0,0,0,0,0,0,0,0,0,0,0,0,0,0,0,0,0,0,0,0,0,0,0,0,0,0,0,0,0,0,0,0,0,0,0,0,0,0,0,0,0,0,0,0,0,0,1.2653,1.2653,0,1.2611,1.2611,1.261,1.2512,1.251,1.2508,1.2506,1.2467,1.2467,1.2468,0,0,0,0,0,0,0,0,0,0,0,0,0,1.265,1.265,1.2653,1.2653,1.2652,1.2611,1.2611,1.261,1.2512,1.251,1.2507,1.2505,1.2466,1.2467,1.2468,0,0,0,0,0,0,0,0,0,0,0,0,0,1.2634,1.2651,1.2654,1.2599,1.2593,1.2611,1.2611,1.261,1.2513,1.251,1.2507,1.2504,1.2466,1.2467,1.2469,1.2538,0,0,1.2472,1.2473,0,0,0,0,0,0,0,0,1.2635,1.2634,1.2607,1.2602,1.2596,1.2564,1.2595,1.2586,1.2514,1.2544,1.2506,1.2502,1.2502,1.25,1.2499,1.2536,1.2534,1.2473,1.2473,1.2474,1.2474,0,0,0,0,0,0,0,1.2636,1.2636,1.2637,1.2607,1.26,1.2576,1.2571,1.2593,1.2541,1.2541,1.2533,1.253,1.2498,1.2498,1.2497,1.2534,1.2473,1.2474,1.2474,1.2475,1.2622,1.2625,0,0,0,0,0,0,1.2645,1.2637,1.2638,1.2635,1.2608,1.2579,1.2572,1.2577,1.254,1.2531,1.2532,1.2525,1.2497,1.2496,1.2495,1.2572,1.2474,1.2475,1.2476,1.2619,1.2623,1.2626,0,0,0,0,0,0,1.2645,1.2646,1.264,1.2634,1.2632,1.2582,1.2588,1.2578,1.2578,1.2533,1.2524,1.2541,1.2495,1.2494,1.2527,1.2569,1.2476,1.2477,1.2615,1.262,1.2624,1.2727,0,0,0,0,0,0,1.2646,1.2647,1.2673,1.2636,1.2632,1.2672,1.2591,1.258,1.258,1.257,1.254,1.2532,1.2492,1.2525,1.2528,1.2569,1.2478,1.2611,1.2617,1.2623,1.2719,1.2734,1.2747,0,0,0,0,0,1.2646,1.2705,1.2675,1.2675,1.2664,1.2675,1.2673,1.2625,1.2584,1.2609,1.258,1.2533,1.2564,1.253,1.2532,1.2574,1.2608,1.2615,1.2622,1.2713,1.2731,1.2747,0,0,0,0,0,0,1.2751,1.2699,1.2665,1.2714,1.2699,1.2658,1.2689,1.2647,1.2645,1.2636,1.2578,1.2572,1.2613,1.2597,1.256,1.2637,1.2578,1.2586,1.2646,1.2663,1.2677,1.268,1.2479,0,0,0,0,0,1.2779,1.2792,1.2747,1.2794,1.2788,1.274,1.2743,1.2707,1.269,1.2684,1.2658,1.2644,1.265,1.2656,1.2659,1.2716,1.2707,1.2746,1.276,1.2771,1.2779,1.2805,1.2821,1.2649,1.2649,1.2649,0,0,1.2839,1.2812,1.2825,1.2814,1.2799,1.2813,1.2736,1.2755,1.2765,1.2688,1.2716,1.2697,1.2677,1.2722,1.274,1.2709,1.2824,1.278,1.279,1.2791,1.2814,1.283,1.2845,1.2654,1.2653,1.2652,0,0,1.2955,1.2937,1.2972,1.2957,1.2934,1.2901,1.2909,1.2874,1.2857,1.2885,1.2826,1.2837,1.285,1.2837,1.2833,1.2939,1.2895,1.2942,1.3015,1.3041,1.3055,1.3066,1.3103,1.3117,1.295,1.295,1.295,0,1.3033,1.3051,1.2997,1.3018,1.3015,1.2943,1.2978,1.2966,1.2946,1.2945,1.2911,1.2922,1.2905,1.2944,1.2969,1.2969,1.2976,1.2946,1.3057,1.3068,1.3078,1.3112,1.3126,1.2956,1.2955,1.2954,1.2954,0,1.3147,1.316,1.3192,1.3171,1.3171,1.32,1.315,1.3156,1.3119,1.309,1.3117,1.3093,1.3088,1.3095,1.3061,1.3129,1.311,1.3067,1.3007,1.3101,1.3132,1.3145,1.2964,1.2962,1.296,1.2959,0,0,1.333,1.3276,1.3288,1.3277,1.3243,1.3253,1.3278,1.3271,1.3277,1.3265,1.3283,1.3294,1.3252,1.3247,1.321,1.3233,1.3317,1.3187,1.3185,1.3211,1.3388,1.342,1.3436,1.3286,1.3289,1.3291,1.3389,0,1.3438,1.3475,1.3425,1.3474,1.3485,1.3415,1.3435,1.3417,1.339,1.3395,1.3364,1.3372,1.3318,1.3314,1.3333,1.3303,1.3351,1.3295,1.3303,1.3304,1.331,1.3453,1.3487,1.3582,1.3401,1.3403,1.3404,0,1.3569,1.356,1.3609,1.3569,1.3572,1.3592,1.358,1.3586,1.3563,1.3541,1.3533,1.3488,1.3508,1.3449,1.3476,1.3438,1.3438,1.3423,1.3426,1.3425,1.336,1.3455,1.3611,1.3625,1.3423,1.3422,1.342,0,1.3696,1.3696,1.3724,1.3717,1.3672,1.3687,1.3669,1.3643,1.3641,1.3631,1.3629,1.3623,1.362,1.3615,1.3569,1.353,1.3601,1.3538,1.3583,1.3584,1.3601,1.3601,1.3759,1.3602,1.3602,1.3602,1.3602,0,1.3821,1.3854,1.378,1.3798,1.3832,1.3773,1.3809,1.3783,1.376,1.3771,1.3711,1.3723,1.366,1.3666,1.3629,1.3656,1.3655,1.3638,1.3628,1.3643,1.3645,1.3643,1.3635,1.3606,1.3605,1.3604,1.3603,0,1.3969,1.3922,1.3948,1.3901,1.389,1.3917,1.3878,1.3892,1.3858,1.3873,1.3874,1.3822,1.3825,1.3777,1.3771,1.3746,1.3789,1.3768,1.3797,1.379,1.3836,1.3832,1.3998,1.4016,1.3849,1.3851,1.3852,0,1.4052,1.4075,1.403,1.4032,1.4017,1.4022,1.4018,1.3961,1.396,1.3933,1.3951,1.3948,1.3942,1.3949,1.3912,1.3906,1.3884,1.3942,1.3883,1.3896,1.3883,1.3882,1.3883,1.3955,1.3957,1.3959,1.396,0,1.4204,1.4178,1.4176,1.4164,1.4161,1.415,1.4135,1.414,1.4077,1.4079,1.408,1.4075,1.4067,1.4064,1.405,1.4032,1.3986,1.3978,1.3988,1.4004,1.4019,1.401,1.383,1.3975,1.3974,1.3973,1.3972,1.3971,1.4322,1.4337,1.4307,1.4305,1.4287,1.4273,1.4283,1.425,1.4249,1.4236,1.4202,1.4208,1.4181,1.4158,1.4143,1.4146,1.4118,1.4132,1.4136,1.414,1.4149,1.4019,1.4144,1.4143,1.4143,1.4142,1.4142,0,1.4469,1.4445,1.4444,1.4423,1.4421,1.4374,1.4354,1.4356,1.4361,1.434,1.4334,1.4334,1.433,1.429,1.4282,1.4292,1.427,1.4292,1.429,1.4286,1.4176,1.4167,1.4309,1.4309,1.4309,1.4309,1.4309,1.4309,1.4546,1.4569,1.4539,1.4552,1.4528,1.4532,1.4524,1.451,1.4492,1.4494,1.4489,1.4463,1.4433,1.4422,1.4416,1.4404,1.4404,1.4432,1.4414,1.4311,1.4295,1.4279,1.4271,1.4433,1.4433,1.4524,1.4525,1.4525]},{"header":{"parameterUnit":"m.s-1","parameterCategory":1,"la1":30.2991,"la2":30.254,"lo1":-89.0895,"lo2":-89.0444,"dy":0.0017,"dx":0.0017,"nx":28,"ny":28,"refTime":"2025-04-13T21:00:00:Z","depth":0,"parameterNumber":3,"parameterNumberName":"V-component_of_WINDS"},"data":[0,0,0,0,0,0,0,0,0,0,0,0,0,0,0,0,0,0,0,0,0,0,0,0,0,0,0,0,0,0,0,0,0,0,0,0,0,0,0,0,0,0,0,0,0,0,0,0,0,0,0,0,0,0,0,0,0,0,5.8427,5.8428,0,5.8457,5.8458,5.8458,5.839,5.8388,5.8386,5.8384,5.841,5.8412,5.8415,0,0,0,0,0,0,0,0,0,0,0,0,0,5.8307,5.8309,5.8427,5.8428,5.8428,5.8457,5.8458,5.8458,5.8391,5.8388,5.8385,5.8383,5.8409,5.8412,5.8415,0,0,0,0,0,0,0,0,0,0,0,0,0,5.835,5.831,5.8427,5.8398,5.8396,5.8457,5.8458,5.8458,5.8391,5.8388,5.8385,5.8382,5.8408,5.8412,5.8416,5.8506,0,0,5.8428,5.843,0,0,0,0,0,0,0,0,5.8348,5.8355,5.8402,5.84,5.8398,5.8417,5.8425,5.8474,5.8392,5.8393,5.8384,5.838,5.8414,5.8418,5.843,5.8507,5.8508,5.8429,5.8431,5.8433,5.8434,0,0,0,0,0,0,0,5.8345,5.8353,5.8439,5.8403,5.84,5.8382,5.8384,5.8434,5.8421,5.8392,5.8388,5.8392,5.8413,5.8427,5.843,5.8508,5.8428,5.8432,5.8435,5.8436,5.8657,5.8661,0,0,0,0,0,0,5.8346,5.8351,5.8438,5.844,5.8364,5.8387,5.839,5.8414,5.8421,5.8419,5.8395,5.8389,5.8421,5.8426,5.8431,5.8534,5.8433,5.8436,5.8439,5.8654,5.8658,5.8662,0,0,0,0,0,0,5.8344,5.8355,5.8437,5.8394,5.8403,5.8392,5.842,5.8416,5.843,5.8423,5.8419,5.8412,5.8419,5.8425,5.8487,5.8534,5.8438,5.8442,5.865,5.8655,5.866,5.8743,0,0,0,0,0,0,5.8341,5.8354,5.8389,5.8396,5.8406,5.8494,5.8423,5.8419,5.8438,5.843,5.8437,5.8436,5.8417,5.8482,5.8491,5.8538,5.8445,5.8646,5.8652,5.8658,5.8735,5.875,5.8762,0,0,0,0,0,5.8337,5.8411,5.8391,5.8402,5.845,5.8497,5.8503,5.8481,5.8442,5.8476,5.8471,5.8435,5.8529,5.8489,5.8499,5.8547,5.8642,5.865,5.8658,5.8729,5.8747,5.8762,0,0,0,0,0,0,5.8408,5.8411,5.839,5.8468,5.8483,5.8486,5.8528,5.8501,5.8526,5.8517,5.8488,5.849,5.8557,5.8559,5.8514,5.8634,5.8578,5.8589,5.8629,5.8646,5.8659,5.8655,5.8449,0,0,0,0,0,5.8434,5.8474,5.8473,5.8543,5.8552,5.8539,5.8559,5.8541,5.8554,5.856,5.8559,5.8573,5.8604,5.8626,5.8655,5.8737,5.8736,5.8775,5.8789,5.88,5.8808,5.8848,5.8865,5.8687,5.8687,5.8687,0,0,5.8486,5.8492,5.8519,5.8557,5.8567,5.8606,5.8544,5.859,5.8618,5.8566,5.8624,5.8625,5.8637,5.8709,5.8741,5.8713,5.8857,5.881,5.8819,5.882,5.8858,5.8875,5.889,5.8693,5.8692,5.8691,0,0,5.86,5.861,5.8668,5.8679,5.8695,5.8686,5.87,5.8707,5.8706,5.8764,5.8725,5.8759,5.8815,5.8825,5.8838,5.8957,5.8924,5.8968,5.9036,5.9076,5.909,5.9102,5.9141,5.9156,5.8976,5.8977,5.8977,0,5.8661,5.8721,5.87,5.8748,5.8765,5.8723,5.8779,5.8791,5.8815,5.8827,5.8796,5.8865,5.8871,5.8943,5.8972,5.8985,5.8998,5.8965,5.909,5.9102,5.9113,5.915,5.9165,5.8982,5.8981,5.898,5.898,0,5.8795,5.8837,5.8882,5.8907,5.893,5.8982,5.8967,5.8992,5.8973,5.8967,5.9026,5.9033,5.9061,5.9078,5.9059,5.9147,5.9129,5.9095,5.9038,5.9135,5.9169,5.9183,5.8989,5.8987,5.8985,5.8984,0,0,5.8951,5.8966,5.8982,5.8992,5.9008,5.9039,5.9089,5.9119,5.9139,5.9158,5.9197,5.9247,5.9215,5.9229,5.9212,5.9248,5.9338,5.9209,5.9208,5.9229,5.9432,5.9454,5.9472,5.9318,5.9321,5.9323,5.943,0,5.9061,5.9148,5.9131,5.9215,5.9252,5.9213,5.9256,5.9269,5.9266,5.9295,5.9291,5.9325,5.9283,5.9291,5.9325,5.932,5.9378,5.9313,5.9351,5.9353,5.9345,5.949,5.9514,5.9614,5.9443,5.9445,5.9447,0,5.92,5.9225,5.9313,5.9321,5.9336,5.9376,5.9401,5.9431,5.9445,5.9439,5.9456,5.9432,5.9479,5.9426,5.9489,5.9446,5.9461,5.9461,5.9464,5.9464,5.9403,5.9489,5.9646,5.9659,5.9469,5.9467,5.9465,0,5.9301,5.9357,5.9416,5.9427,5.9439,5.9467,5.9473,5.9484,5.9502,5.9525,5.9536,5.9563,5.9577,5.9598,5.9581,5.9544,5.9647,5.9592,5.9641,5.9641,5.966,5.9659,5.9818,5.9678,5.9677,5.9677,5.9677,0,5.9423,5.9477,5.9462,5.9497,5.9557,5.9537,5.9596,5.9597,5.9607,5.9641,5.961,5.9643,5.962,5.9651,5.9638,5.9691,5.9699,5.9694,5.9689,5.9694,5.9694,5.97,5.9691,5.9681,5.968,5.9679,5.9679,0,5.9544,5.9536,5.9597,5.9605,5.9608,5.9651,5.9656,5.9688,5.9684,5.9727,5.9736,5.9728,5.9762,5.9748,5.9784,5.9776,5.9842,5.9831,5.9838,5.9833,5.9881,5.9876,6.0046,6.0067,5.9917,5.9919,5.992,0,5.962,5.9661,5.9673,5.9695,5.9703,5.9738,5.9758,5.974,5.9761,5.978,5.981,5.9842,5.9865,5.9922,5.9917,5.9944,5.993,5.9989,5.9934,5.9937,5.9927,5.9923,5.9925,5.9998,6.0,6.0001,6.0002,0,5.9755,5.9749,5.9779,5.9808,5.9832,5.9853,5.9872,5.9891,5.9874,5.9899,5.9934,5.9953,5.9991,6.0021,6.0046,6.005,6.0022,6.0021,6.0032,6.0036,6.0037,6.0033,5.9863,6.0015,6.0014,6.0013,6.0012,6.0012,5.9853,5.9887,5.9901,5.9934,5.9947,5.9965,5.9996,5.9996,6.0025,6.0054,6.0043,6.0083,6.0094,6.0124,6.0133,6.0162,6.0139,6.0158,6.0161,6.0165,6.017,6.0036,6.0167,6.0167,6.0167,6.0166,6.0166,0,5.9983,5.999,6.0022,6.0049,6.0076,6.0052,6.0071,6.0093,6.0129,6.0144,6.0169,6.0208,6.0238,6.0238,6.0265,6.0289,6.0277,6.0296,6.0292,6.0293,6.0191,6.0176,6.0305,6.0305,6.0305,6.0305,6.0305,6.0305,6.0053,6.0108,6.0105,6.0165,6.0172,6.0212,6.0225,6.024,6.0252,6.0298,6.0323,6.0324,6.0331,6.0359,6.0385,6.0384,6.0394,6.0417,6.0411,6.0315,6.03,6.0287,6.0273,6.0421,6.0421,6.051,6.0511,6.0512]}]]